Location: Hungerford
(51.4167°N, 1.5167°W)
Time: 22:49:44
(UTC+00:00)

OBJECT-B - Pass Details

Date: 18 September 2020
Orbit: 421 x 433 km, 97.0° (Epoch: 09 October)

Event Time Altitude Azimuth Distance (km) Brightness Sun altitude
Exits shadow 20:34:37 35° 231° (SW) 710 2.0 -21.7°
Maximum altitude 20:35:16 39° 262° (W) 650 2.0 -21.8°
Drops below altitude 10° 20:38:21 10° 333° (NNW) 1,524 4.4 -22.2°
Sets 20:40:27 0° 342° (NNW) 2,397 5.4 -22.5°
